Weather History for Abingdon, VA

Change the Weather History Date:

Wednesday, September 25, 2013

  Actual Average (KTRI) Record (KTRI)
Temperature  
Mean Temperature 64 °F 64 °F  
Max Temperature 68 °F 76 °F 91 °F (2007)
Min Temperature 60 °F 51 °F 38 °F (1950)
Degree Days  
Heating Degree Days 1 3  
Month to date heating degree days 29  
Since 1 July heating degree days 30  
Cooling Degree Days 0 2  
Month to date cooling degree days 108  
Year to date cooling degree days 960  
Growing Degree Days 14 (Base 50)    
Moisture  
Dew Point 62 °F    
Average Humidity 95    
Maximum Humidity 100    
Minimum Humidity 84    
Precipitation  
Precipitation 0.02 in 0.09 in 1.38 in (1989)
Month to date precipitation 2.55  
Year to date precipitation 32.00  
Snow  
Snow 0.00 in 0.00 in - ()
Month to date snowfall 0.0  
Since 1 July snowfall 0.0  
Since 1 September snowfall 0.0  
Snow Depth -    
Sea Level Pressure  
Sea Level Pressure 29.94 in    
Wind  
Wind Speed 5 mph (East)    
Max Wind Speed 10 mph    
Max Gust Speed -    
Visibility 10 miles    
Events Rain    
T = Trace of Precipitation, MM = Missing Value Source: NWS Daily Summary

Daily Weather History Graph

Daily Weather History Graph

Search for Another Location

Airport:

Trip Planner

Search our weather history database for the weather conditions in past years. The results will help you decide how hot, cold, wet, or windy it might be!

Date:

Astronomy

Sep. 25, 2013 Rise Set
Actual Time 7:18 AM EDT 7:20 PM EDT
Civil Twilight 6:52 AM EDT 7:45 PM EDT
Nautical Twilight 6:22 AM EDT 8:15 PM EDT
Astronomical Twilight 5:52 AM EDT 8:46 PM EDT
Moon 11:33 PM EDT (9/25) 1:15 PM EDT (9/25)
Length of Visible Light 12h 53m
Length of Day
12h 01m
Waning Gibbous, 64% of the Moon is Illuminated
Sep 25
Waning Gibbous
Sep 26
Last Quarter
Oct 4
New
Oct 11
First Quarter
Oct 18
Full

Hourly Weather History & Observations

Time (EDT) Temp. Dew Point Humidity Pressure Visibility Wind Dir Wind Speed Gust Speed Precip Events Conditions
12:15 AM 62.2 °F 61.3 °F 97% 29.97 in 10.0 mi East 3.5 mph - N/A   Clear
12:35 AM 60.6 °F 60.4 °F 99% 29.97 in 10.0 mi East 3.5 mph - N/A   Clear
12:55 AM 61.0 °F 61.0 °F 100% 29.96 in 10.0 mi ENE 4.6 mph - N/A   Clear
1:15 AM 62.2 °F 61.2 °F 96% 29.96 in 10.0 mi East 8.1 mph - N/A   Clear
1:35 AM 61.9 °F 61.3 °F 98% 29.95 in 10.0 mi East 8.1 mph - N/A   Mostly Cloudy
1:55 AM 61.3 °F 61.0 °F 99% 29.95 in 10.0 mi East 6.9 mph - N/A   Scattered Clouds
2:15 AM 61.2 °F 60.8 °F 99% 29.95 in 10.0 mi East 4.6 mph - N/A   Clear
2:35 AM 61.7 °F 60.8 °F 97% 29.95 in 10.0 mi East 8.1 mph - N/A   Clear
2:55 AM 61.0 °F 60.8 °F 99% 29.95 in 10.0 mi ESE 3.5 mph - N/A   Scattered Clouds
3:35 AM 60.4 °F 60.3 °F 99% 29.94 in 10.0 mi East 5.8 mph - N/A   Scattered Clouds
3:55 AM 60.8 °F 60.4 °F 99% 29.93 in 10.0 mi East 5.8 mph - N/A   Scattered Clouds
4:15 AM 61.2 °F 60.6 °F 98% 29.92 in 10.0 mi East 3.5 mph - N/A   Mostly Cloudy
4:35 AM 60.8 °F 60.4 °F 99% 29.93 in 10.0 mi Calm Calm - N/A   Mostly Cloudy
4:55 AM 61.2 °F 60.4 °F 97% 29.94 in 10.0 mi Calm Calm - N/A   Overcast
5:35 AM 61.7 °F 61.2 °F 98% 29.94 in 10.0 mi East 4.6 mph - N/A   Light Drizzle
5:55 AM 61.3 °F 61.0 °F 99% 29.93 in 10.0 mi East 10.4 mph - N/A   Overcast
6:15 AM 61.3 °F 60.8 °F 98% 29.93 in 10.0 mi ENE 4.6 mph - N/A   Overcast
6:35 AM 61.7 °F 60.8 °F 97% 29.93 in 10.0 mi ENE 4.6 mph - N/A   Overcast
6:55 AM 61.3 °F 61.0 °F 99% 29.93 in 10.0 mi East 5.8 mph - N/A   Overcast
7:15 AM 61.3 °F 61.2 °F 99% 29.93 in 10.0 mi NE 3.5 mph - N/A   Overcast
7:35 AM 61.2 °F 61.2 °F 100% 29.93 in 10.0 mi ESE 4.6 mph - N/A   Overcast
7:55 AM 61.3 °F 61.0 °F 99% 29.94 in 10.0 mi Calm Calm - N/A Rain Light Rain
8:15 AM 61.3 °F 61.3 °F 100% 29.94 in 10.0 mi East 6.9 mph - N/A   Mostly Cloudy
8:35 AM 61.3 °F 61.2 °F 99% 29.93 in 10.0 mi ESE 6.9 mph - N/A   Light Drizzle
8:55 AM 61.3 °F 61.3 °F 100% 29.93 in 10.0 mi East 6.9 mph - N/A Rain Light Rain
9:15 AM 62.1 °F 61.3 °F 97% 29.94 in 10.0 mi ENE 3.5 mph - N/A Rain Light Rain
9:35 AM 62.8 °F 61.7 °F 96% 29.95 in 10.0 mi East 8.1 mph - N/A   Overcast
9:55 AM 63.7 °F 62.2 °F 95% 29.95 in 10.0 mi East 8.1 mph - N/A   Overcast
10:15 AM 64.4 °F 62.6 °F 94% 29.95 in 10.0 mi ESE 8.1 mph - N/A   Overcast
10:35 AM 65.5 °F 63.0 °F 92% 29.96 in 10.0 mi ESE 6.9 mph - N/A Rain Light Rain
10:55 AM 66.0 °F 62.8 °F 89% 29.95 in 10.0 mi East 6.9 mph - N/A Rain Light Rain
11:15 AM 66.0 °F 63.1 °F 90% 29.95 in 10.0 mi East 6.9 mph - N/A   Overcast
11:35 AM 66.6 °F 62.6 °F 87% 29.95 in 10.0 mi East 4.6 mph - N/A   Overcast
11:55 AM 66.6 °F 63.0 °F 88% 29.95 in 7.0 mi Calm Calm - 0.01 in Rain Light Rain
12:15 PM 66.6 °F 63.1 °F 89% 29.95 in 10.0 mi SE 3.5 mph - N/A   Overcast
12:35 PM 66.7 °F 64.2 °F 92% 29.95 in 10.0 mi SSE 3.5 mph - N/A Rain Light Rain
12:55 PM 68.0 °F 63.1 °F 84% 29.95 in 10.0 mi East 3.5 mph - N/A   Overcast
1:15 PM 67.1 °F 63.5 °F 88% 29.94 in 10.0 mi ENE 3.5 mph - N/A Rain Light Rain
1:35 PM 67.3 °F 63.7 °F 88% 29.93 in 10.0 mi Calm Calm - N/A   Light Drizzle
2:15 PM 67.3 °F 63.9 °F 89% 29.93 in 10.0 mi Calm Calm - N/A Rain Light Rain
2:55 PM 67.3 °F 64.4 °F 90% 29.93 in 10.0 mi Calm Calm - N/A   Light Drizzle
3:15 PM 66.9 °F 64.6 °F 92% 29.92 in 10.0 mi Calm Calm - 0.01 in Rain Light Rain
3:35 PM 66.4 °F 65.3 °F 96% 29.91 in 10.0 mi East 4.6 mph - 0.01 in   Mostly Cloudy
3:55 PM 66.6 °F 64.8 °F 94% 29.91 in 10.0 mi ENE 4.6 mph - 0.01 in   Overcast
4:15 PM 66.2 °F 64.4 °F 94% 29.91 in 10.0 mi NE 3.5 mph - N/A   Overcast
4:35 PM 66.7 °F 64.0 °F 91% 29.91 in 10.0 mi East 4.6 mph - N/A   Overcast
4:55 PM 67.1 °F 64.8 °F 92% 29.91 in 10.0 mi ESE 4.6 mph - N/A   Overcast
5:15 PM 67.5 °F 65.3 °F 93% 29.91 in 10.0 mi SSE 4.6 mph - N/A   Overcast
5:35 PM 67.1 °F 64.4 °F 91% 29.91 in 10.0 mi East 5.8 mph - N/A   Overcast
5:55 PM 66.9 °F 64.4 °F 92% 29.92 in 10.0 mi Calm Calm - N/A   Overcast
6:15 PM 66.7 °F 64.8 °F 93% 29.92 in 10.0 mi Calm Calm - N/A   Overcast
6:35 PM 67.1 °F 65.5 °F 95% 29.92 in 10.0 mi SE 4.6 mph - N/A   Overcast
6:55 PM 66.4 °F 65.3 °F 96% 29.92 in 10.0 mi ESE 4.6 mph - N/A   Overcast
7:15 PM 66.2 °F 64.9 °F 96% 29.92 in 10.0 mi ESE 4.6 mph - N/A   Overcast
7:35 PM 65.7 °F 64.6 °F 96% 29.92 in 10.0 mi East 4.6 mph - N/A   Overcast
7:55 PM 65.3 °F 64.2 °F 96% 29.92 in 10.0 mi Calm Calm - N/A   Overcast
8:15 PM 65.3 °F 64.0 °F 96% 29.92 in 10.0 mi Calm Calm - N/A   Overcast
8:35 PM 64.8 °F 63.5 °F 96% 29.93 in 10.0 mi ENE 3.5 mph - N/A   Overcast
8:55 PM 63.5 °F 63.0 °F 98% 29.93 in 10.0 mi East 4.6 mph - N/A   Mostly Cloudy
9:15 PM 63.5 °F 62.6 °F 97% 29.93 in 10.0 mi East 4.6 mph - N/A   Scattered Clouds
9:35 PM 63.1 °F 62.1 °F 96% 29.94 in 10.0 mi ENE 5.8 mph - N/A   Overcast
9:55 PM 62.4 °F 61.7 °F 97% 29.94 in 10.0 mi East 4.6 mph - N/A   Mostly Cloudy
10:15 PM 62.8 °F 61.9 °F 97% 29.94 in 10.0 mi ENE 5.8 mph - N/A   Overcast
10:35 PM 62.8 °F 61.9 °F 97% 29.94 in 10.0 mi East 5.8 mph - N/A   Overcast
10:55 PM 62.8 °F 61.9 °F 97% 29.94 in 10.0 mi East 6.9 mph - N/A   Overcast
11:15 PM 62.8 °F 61.7 °F 96% 29.94 in 10.0 mi East 6.9 mph - N/A   Overcast
11:35 PM 62.8 °F 61.3 °F 95% 29.94 in 10.0 mi East 5.8 mph - N/A   Overcast
11:55 PM 62.6 °F 61.3 °F 96% 29.94 in 10.0 mi East 5.8 mph - N/A   Overcast